Weather History for Graham, TX

Change the Weather History Date:

Tuesday, February 18, 2014

  Actual Average (KMWL) Record (KMWL)
Temperature  
Mean Temperature 58 °F -  
Max Temperature 84 °F 59 °F 84 °F (2011)
Min Temperature 31 °F 38 °F 19 °F (2006)
Degree Days  
Heating Degree Days 8    
Growing Degree Days 8 (Base 50)    
Moisture  
Dew Point 38 °F    
Average Humidity 51    
Maximum Humidity 82    
Minimum Humidity 24    
Precipitation  
Precipitation 0.00 in - - ()
Sea Level Pressure  
Sea Level Pressure 29.93 in    
Wind  
Wind Speed 4 mph (South)    
Max Wind Speed 17 mph    
Max Gust Speed 24 mph    
Visibility 10 miles    
Events      
Averages and records for this station are not official NWS values.
T = Trace of Precipitation, MM = Missing Value Source: NWS Daily Summary

Daily Weather History Graph

Daily Weather History Graph

Search for Another Location

Airport:

Trip Planner

Search our weather history database for the weather conditions in past years. The results will help you decide how hot, cold, wet, or windy it might be!

Date:

Astronomy

Feb. 18, 2014 Rise Set
Actual Time 7:14 AM CST 6:22 PM CST
Civil Twilight 6:49 AM CST 6:47 PM CST
Nautical Twilight 6:20 AM CST 7:16 PM CST
Astronomical Twilight 5:51 AM CST 7:44 PM CST
Moon 10:02 PM CST (2/18) 9:00 AM CST (2/18)
Length of Visible Light 11h 57m
Length of Day
11h 07m
Waning Gibbous, 87% of the Moon is Illuminated
Feb 18
Waning Gibbous
Feb 22
Last Quarter
Mar 1
New
Mar 8
First Quarter
Mar 16
Full

Hourly Weather History & Observations

Time (CST) Temp. Windchill Dew Point Humidity Pressure Visibility Wind Dir Wind Speed Gust Speed Precip Events Conditions
12:15 AM 38.5 °F - 25.3 °F 59% 30.11 in 10.0 mi Calm Calm - N/A   Clear
12:35 AM 37.6 °F - 25.3 °F 61% 30.10 in 10.0 mi Calm Calm - N/A   Clear
12:55 AM 36.5 °F - 27.0 °F 68% 30.09 in 10.0 mi Calm Calm - N/A   Clear
1:15 AM 37.0 °F - 25.5 °F 63% 30.09 in 10.0 mi Calm Calm - N/A   Clear
1:35 AM 37.4 °F - 25.3 °F 62% 30.10 in 10.0 mi Calm Calm - N/A   Clear
1:55 AM 36.3 °F - 25.3 °F 64% 30.09 in 10.0 mi Calm Calm - N/A   Clear
2:15 AM 32.9 °F - 25.3 °F 74% 30.08 in 10.0 mi Calm Calm - N/A   Clear
2:35 AM 34.0 °F - 26.8 °F 75% 30.06 in 10.0 mi Calm Calm - N/A   Clear
2:55 AM 34.0 °F - 26.4 °F 74% 30.06 in 10.0 mi Calm Calm - N/A   Clear
3:15 AM 34.2 °F - 25.3 °F 70% 30.04 in 10.0 mi Calm Calm - N/A   Clear
3:35 AM 34.0 °F - 25.7 °F 72% 30.04 in 10.0 mi Calm Calm - N/A   Clear
3:55 AM 33.3 °F - 25.9 °F 74% 30.03 in 10.0 mi Calm Calm - N/A   Clear
4:15 AM 34.3 °F - 26.6 °F 73% 30.03 in 10.0 mi Calm Calm - N/A   Clear
4:35 AM 31.8 °F - 25.3 °F 77% 30.02 in 10.0 mi Calm Calm - N/A   Clear
4:55 AM 32.0 °F - 25.7 °F 78% 30.02 in 10.0 mi Calm Calm - N/A   Clear
5:15 AM 32.0 °F - 26.4 °F 80% 30.03 in 10.0 mi Calm Calm - N/A   Clear
5:35 AM 32.0 °F - 26.4 °F 80% 30.03 in 10.0 mi Calm Calm - N/A   Clear
5:55 AM 32.9 °F 29.8 °F 25.7 °F 75% 30.01 in 10.0 mi SE 3.5 mph - N/A   Clear
6:15 AM 35.6 °F 31.7 °F 27.5 °F 72% 30.01 in 10.0 mi SSE 4.6 mph - N/A   Clear
6:35 AM 34.2 °F 30.0 °F 27.3 °F 76% 30.00 in 10.0 mi SSE 4.6 mph - N/A   Clear
6:55 AM 32.0 °F - 27.0 °F 82% 30.00 in 10.0 mi Calm Calm - N/A   Clear
7:15 AM 32.0 °F - 26.4 °F 80% 30.00 in 10.0 mi Calm Calm - N/A   Clear
7:35 AM 32.9 °F - 27.5 °F 81% 30.01 in 10.0 mi Calm Calm - N/A   Clear
7:55 AM 34.7 °F - 28.6 °F 78% 30.01 in 10.0 mi Calm Calm - N/A   Clear
8:15 AM 39.7 °F - 32.0 °F 74% 30.01 in 10.0 mi Calm Calm - N/A   Clear
8:35 AM 43.2 °F - 32.9 °F 67% 30.01 in 10.0 mi Calm Calm - N/A   Clear
8:55 AM 48.6 °F - 32.0 °F 53% 30.00 in 10.0 mi Calm Calm - N/A   Clear
9:15 AM 54.3 °F - 30.2 °F 40% 29.99 in 10.0 mi South 5.8 mph - N/A   Clear
9:35 AM 58.5 °F - 28.9 °F 33% 30.00 in 10.0 mi SSE 8.1 mph - N/A   Clear
9:55 AM 60.8 °F - 29.1 °F 30% 29.99 in 10.0 mi South 9.2 mph - N/A   Clear
10:15 AM 63.7 °F - 30.6 °F 29% 29.98 in 10.0 mi SSE 10.4 mph - N/A   Clear
10:35 AM 66.4 °F - 30.2 °F 26% 29.97 in 10.0 mi South 12.7 mph 20.7 mph N/A   Clear
10:55 AM 70.0 °F - 32.9 °F 25% 29.97 in 10.0 mi South 9.2 mph 17.3 mph N/A   Clear
11:15 AM 69.8 °F - 36.0 °F 29% 29.96 in 10.0 mi South 12.7 mph 18.4 mph N/A   Clear
11:35 AM 71.2 °F - 45.5 °F 40% 29.94 in 10.0 mi SSW 9.2 mph 24.2 mph N/A   Clear
11:55 AM 72.3 °F - 46.8 °F 40% 29.93 in 10.0 mi SSW 15.0 mph 20.7 mph N/A   Clear
12:15 PM 74.5 °F - 48.2 °F 39% 29.92 in 10.0 mi SSW 15.0 mph 18.4 mph N/A   Clear
12:35 PM 73.4 °F - 48.2 °F 41% 29.90 in 10.0 mi South 12.7 mph 21.9 mph N/A   Clear
12:55 PM 76.5 °F - 47.3 °F 36% 29.89 in 10.0 mi South 17.3 mph 23.0 mph N/A   Clear
1:15 PM 78.4 °F - 47.3 °F 33% 29.88 in 10.0 mi South 13.8 mph 18.4 mph N/A   Clear
1:35 PM 77.7 °F - 47.5 °F 34% 29.87 in 10.0 mi SSW 12.7 mph 18.4 mph N/A   Clear
1:55 PM 80.4 °F - 47.3 °F 31% 29.85 in 10.0 mi SSW 13.8 mph 23.0 mph N/A   Clear
2:15 PM 80.6 °F - 47.5 °F 31% 29.85 in 10.0 mi SSW 15.0 mph 21.9 mph N/A   Clear
2:35 PM 81.7 °F - 48.4 °F 31% 29.84 in 10.0 mi SSW 12.7 mph 19.6 mph N/A   Clear
2:55 PM 82.6 °F - 49.3 °F 31% 29.83 in 10.0 mi SSW 13.8 mph 17.3 mph N/A   Clear
3:15 PM 83.8 °F - 46.6 °F 27% 29.82 in 10.0 mi SW 10.4 mph - N/A   Clear
3:35 PM 84.2 °F - 47.3 °F 28% 29.82 in 10.0 mi SW 12.7 mph 19.6 mph N/A   Clear
3:55 PM 84.0 °F - 46.0 °F 26% 29.81 in 10.0 mi SW 8.1 mph 23.0 mph N/A   Clear
4:15 PM 83.7 °F - 45.9 °F 27% 29.81 in 10.0 mi SSW 13.8 mph - N/A   Clear
4:35 PM 83.5 °F - 45.5 °F 26% 29.81 in 10.0 mi SSW 9.2 mph - N/A   Clear
4:55 PM 83.3 °F - 45.0 °F 26% 29.80 in 10.0 mi SW 11.5 mph 16.1 mph N/A   Clear
5:15 PM 83.3 °F - 42.8 °F 24% 29.81 in 10.0 mi SW 12.7 mph 16.1 mph N/A   Clear
5:35 PM 81.9 °F - 42.8 °F 25% 29.81 in 10.0 mi SW 6.9 mph - N/A   Clear
5:55 PM 80.2 °F - 41.9 °F 26% 29.81 in 10.0 mi SW 6.9 mph - N/A   Clear
6:15 PM 77.2 °F - 43.0 °F 30% 29.81 in 10.0 mi SW 4.6 mph - N/A   Clear
6:35 PM 74.8 °F - 42.8 °F 32% 29.81 in 10.0 mi SW 4.6 mph - N/A   Clear
6:55 PM 74.5 °F - 43.0 °F 32% 29.81 in 10.0 mi South 3.5 mph - N/A   Clear
7:15 PM 71.8 °F - 42.8 °F 35% 29.82 in 10.0 mi Calm Calm - N/A   Clear
7:35 PM 67.3 °F - 43.3 °F 42% 29.82 in 10.0 mi ESE 5.8 mph - N/A   Clear
7:55 PM 68.4 °F - 43.3 °F 40% 29.82 in 10.0 mi ESE 5.8 mph - N/A   Clear
8:15 PM 67.6 °F - 44.2 °F 43% 29.82 in 10.0 mi SE 5.8 mph - N/A   Clear
8:35 PM 67.8 °F - 45.5 °F 45% 29.83 in 10.0 mi SE 4.6 mph - N/A   Clear
8:55 PM 67.5 °F - 48.9 °F 51% 29.83 in 10.0 mi SE 4.6 mph - N/A   Clear
9:15 PM 68.0 °F - 51.3 °F 55% 29.83 in 10.0 mi SSE 4.6 mph - N/A   Clear
9:35 PM 68.0 °F - 52.2 °F 57% 29.84 in 10.0 mi South 4.6 mph - N/A   Clear
9:55 PM 66.6 °F - 52.5 °F 61% 29.85 in 10.0 mi SSE 5.8 mph - N/A   Clear
10:15 PM 67.1 °F - 53.8 °F 62% 29.85 in 10.0 mi South 5.8 mph - N/A   Clear
10:35 PM 66.4 °F - 54.5 °F 66% 29.85 in 10.0 mi South 5.8 mph - N/A   Clear
10:55 PM 64.8 °F - 54.5 °F 69% 29.86 in 10.0 mi South 3.5 mph - N/A   Clear
11:15 PM 64.2 °F - 54.9 °F 72% 29.86 in 10.0 mi Calm Calm - N/A   Clear
11:55 PM 63.1 °F - 55.4 °F 76% 29.86 in 10.0 mi South 4.6 mph - N/A   Clear